CSN3397 ZGGG-ZSOF

Flight info

Callsign CSN3397
Flight time 1h 27m
Altitude 33100
Route MIKIP9/03 MIKIP A461 BUBDA/K0843S1040 W56 REBIS/K0843S1070 W56 IDPOG A581 WHA R343 MIDOX MID01A
Aircraft E190/M-SDE3GILORVW/S

Departure

Time 2026-04-23 03:14
Airport Guangzhou Baiyun International Airport (ZGGG)

Arrival

Time 2026-04-23 04:41
Airport Hefei Xinqiao International Airport (ZSOF)
Time Latitude Longitude Altitude Speed Heading
2026-04-23 03:13 23.54561 113.44736 5676 ft 257 kts
2026-04-23 03:14 23.56415 113.45002 6146 ft 278 kts
2026-04-23 03:14 23.58372 113.45333 6768 ft 291 kts
2026-04-23 03:14 23.60402 113.45702 7578 ft 295 kts
2026-04-23 03:14 23.62426 113.46081 8406 ft 297 kts
2026-04-23 03:15 23.64449 113.46465 9196 ft 300 kts
2026-04-23 03:15 23.66515 113.46860 9920 ft 304 kts
2026-04-23 03:15 23.68618 113.47261 10613 ft 309 kts
2026-04-23 03:15 23.70754 113.47670 11231 ft 316 kts
2026-04-23 03:16 23.72977 113.48096 11771 ft 326 kts
2026-04-23 03:16 23.75241 113.48531 12326 ft 334 kts
2026-04-23 03:16 23.79869 113.49421 13626 ft 343 kts
2026-04-23 03:17 23.82228 113.49874 14288 ft 345 kts
2026-04-23 03:17 23.84608 113.50331 14891 ft 350 kts
2026-04-23 03:17 23.87031 113.50797 15469 ft 354 kts
2026-04-23 03:17 23.89454 113.51264 16079 ft 357 kts
2026-04-23 03:18 23.91902 113.51735 16658 ft 361 kts
2026-04-23 03:18 23.94414 113.52219 17254 ft 364 kts
2026-04-23 03:18 23.96897 113.52697 17781 ft 368 kts
2026-04-23 03:18 23.99431 113.53185 18313 ft 371 kts
2026-04-23 03:19 24.01991 113.53679 18845 ft 374 kts
2026-04-23 03:19 24.04587 113.54180 19344 ft 378 kts
2026-04-23 03:19 24.07156 113.54675 19828 ft 381 kts
2026-04-23 03:19 24.09792 113.55184 20293 ft 385 kts
2026-04-23 03:20 24.12433 113.55370 20721 ft 376 kts 345°
2026-04-23 03:20 24.14874 113.54466 21168 ft 365 kts 326°
2026-04-23 03:20 24.17087 113.53154 21618 ft 366 kts 324°
2026-04-23 03:20 24.19325 113.51780 22095 ft 367 kts 323°
2026-04-23 03:21 24.21550 113.50395 22548 ft 369 kts 323°
2026-04-23 03:21 24.23790 113.48995 22993 ft 372 kts 323°
2026-04-23 03:21 24.26030 113.47593 23429 ft 374 kts 323°
2026-04-23 03:21 24.28293 113.46175 23903 ft 375 kts 323°
2026-04-23 03:22 24.30573 113.44745 24351 ft 377 kts 322°
2026-04-23 03:22 24.32847 113.43318 24775 ft 380 kts 322°
2026-04-23 03:22 24.35343 113.42223 25145 ft 400 kts 342°
2026-04-23 03:22 24.38185 113.42102 25538 ft 415 kts 353°
2026-04-23 03:23 24.41093 113.42190 25969 ft 416 kts 353°
2026-04-23 03:23 24.43973 113.42273 26374 ft 418 kts 353°
2026-04-23 03:23 24.46909 113.42356 26708 ft 422 kts 353°
2026-04-23 03:23 24.49860 113.42440 27077 ft 424 kts 353°
2026-04-23 03:24 24.52812 113.42524 27469 ft 426 kts 353°
2026-04-23 03:24 24.55771 113.42608 27808 ft 429 kts 353°
2026-04-23 03:24 24.58787 113.42693 28142 ft 432 kts 352°
2026-04-23 03:24 24.61804 113.42779 28519 ft 434 kts 352°
2026-04-23 03:25 24.64822 113.42864 28848 ft 436 kts 352°
2026-04-23 03:25 24.67848 113.42950 29201 ft 438 kts 352°
2026-04-23 03:25 24.70927 113.43037 29555 ft 440 kts 352°
2026-04-23 03:25 24.74002 113.43125 29902 ft 441 kts 352°
2026-04-23 03:26 24.77067 113.43212 30250 ft 443 kts 352°
2026-04-23 03:26 24.80154 113.43300 30603 ft 444 kts 352°
2026-04-23 03:26 24.83224 113.43388 30945 ft 445 kts 351°
2026-04-23 03:26 24.86324 113.43475 31256 ft 447 kts 351°
2026-04-23 03:27 24.89469 113.43565 31557 ft 449 kts 351°
2026-04-23 03:27 24.92575 113.43654 31953 ft 448 kts 351°
2026-04-23 03:27 24.95669 113.43742 32391 ft 446 kts 351°
2026-04-23 03:27 24.98771 113.43832 32874 ft 443 kts 351°
2026-04-23 03:28 25.09127 113.44124 33114 ft 462 kts 351°
2026-04-23 03:28 25.12380 113.44217 33115 ft 469 kts 351°
2026-04-23 03:29 25.18933 113.44406 33111 ft 471 kts 351°
2026-04-23 03:29 25.25488 113.44595 33116 ft 470 kts 351°
2026-04-23 03:30 25.32018 113.44782 33117 ft 469 kts 351°
2026-04-23 03:30 25.38562 113.44969 33120 ft 469 kts 351°
2026-04-23 03:31 25.45080 113.45157 33125 ft 469 kts 351°
2026-04-23 03:31 25.51653 113.45345 33133 ft 470 kts 351°
2026-04-23 03:32 25.58242 113.45534 33132 ft 472 kts 350°
2026-04-23 03:32 25.64761 113.45722 33126 ft 472 kts 351°
2026-04-23 03:33 25.71301 113.45912 33127 ft 470 kts 350°
2026-04-23 03:33 25.77896 113.46103 33126 ft 471 kts 350°
2026-04-23 03:34 25.84447 113.46291 33131 ft 475 kts 350°
2026-04-23 03:34 25.91030 113.46217 33137 ft 469 kts 346°
2026-04-23 03:35 25.97518 113.45956 33130 ft 467 kts 346°
2026-04-23 03:35 26.04021 113.45706 33144 ft 466 kts 346°
2026-04-23 03:36 26.10515 113.45458 33136 ft 465 kts 346°
2026-04-23 03:36 26.16992 113.45209 33136 ft 470 kts 346°
2026-04-23 03:37 26.23503 113.44961 33138 ft 465 kts 346°
2026-04-23 03:37 26.29992 113.44710 33145 ft 468 kts 346°
2026-04-23 03:38 26.36566 113.44458 33126 ft 471 kts 346°
2026-04-23 03:38 26.43107 113.44207 33132 ft 470 kts 346°
2026-04-23 03:39 26.49610 113.43958 33147 ft 469 kts 345°
2026-04-23 03:39 26.56122 113.43707 33131 ft 470 kts 346°
2026-04-23 03:40 26.62687 113.43455 33136 ft 473 kts 346°
2026-04-23 03:40 26.69190 113.43206 33130 ft 472 kts 345°
2026-04-23 03:41 26.75727 113.42954 33132 ft 470 kts 345°
2026-04-23 03:41 26.82305 113.42701 33135 ft 474 kts 345°
2026-04-23 03:42 26.88874 113.42449 33142 ft 470 kts 345°
2026-04-23 03:42 26.95425 113.42196 33140 ft 473 kts 345°
2026-04-23 03:43 27.01981 113.41943 33134 ft 471 kts 345°
2026-04-23 03:43 27.08527 113.41691 33133 ft 473 kts 345°
2026-04-23 03:44 27.15162 113.41434 33133 ft 474 kts 345°
2026-04-23 03:44 27.21711 113.41180 33122 ft 473 kts 345°
2026-04-23 03:45 27.28231 113.40928 33128 ft 470 kts 345°
2026-04-23 03:45 27.34833 113.40762 33121 ft 476 kts 348°
2026-04-23 03:46 27.41473 113.40918 33121 ft 477 kts 348°
2026-04-23 03:46 27.48084 113.41050 33123 ft 475 kts 348°
2026-04-23 03:47 27.54765 113.41180 33123 ft 476 kts 348°
2026-04-23 03:47 27.61338 113.41310 33121 ft 474 kts 347°
2026-04-23 03:48 27.67981 113.41581 33123 ft 484 kts 352°
2026-04-23 03:48 27.74672 113.42210 33121 ft 481 kts 351°
2026-04-23 03:49 27.81357 113.42806 33115 ft 483 kts 351°
2026-04-23 03:49 27.88035 113.43396 33121 ft 483 kts 351°
2026-04-23 03:50 27.94726 113.43987 33119 ft 479 kts 351°
2026-04-23 03:50 28.01380 113.44567 33128 ft 480 kts 351°
2026-04-23 03:51 28.08062 113.45151 33129 ft 479 kts 351°
2026-04-23 03:51 28.14704 113.45641 33124 ft 478 kts 350°
2026-04-23 03:52 28.21334 113.46114 33116 ft 477 kts 350°
2026-04-23 03:52 28.28020 113.46593 33119 ft 479 kts 351°
2026-04-23 03:53 28.34674 113.47072 33118 ft 477 kts 351°
2026-04-23 03:53 28.41304 113.47548 33128 ft 479 kts 351°
2026-04-23 03:54 28.47916 113.48019 33126 ft 479 kts 351°
2026-04-23 03:54 28.54557 113.48495 33131 ft 477 kts 351°
2026-04-23 03:55 28.61178 113.48968 33126 ft 477 kts 351°
2026-04-23 03:55 28.67845 113.49445 33133 ft 477 kts 351°
2026-04-23 03:56 28.74466 113.49921 33130 ft 477 kts 351°
2026-04-23 03:56 28.81098 113.50396 33131 ft 478 kts 351°
2026-04-23 03:57 28.87719 113.50871 33136 ft 478 kts 352°
2026-04-23 03:57 28.94358 113.51350 33132 ft 475 kts 352°
2026-04-23 03:58 29.00952 113.51823 33135 ft 477 kts 352°
2026-04-23 03:58 29.07535 113.52300 33135 ft 474 kts 352°
2026-04-23 03:59 29.14161 113.52777 33130 ft 475 kts 352°
2026-04-23 03:59 29.20816 113.53258 33123 ft 477 kts 352°
2026-04-23 04:00 29.27397 113.53735 33134 ft 476 kts 352°
2026-04-23 04:00 29.33985 113.54290 33135 ft 473 kts 353°
2026-04-23 04:01 29.40575 113.54861 33128 ft 475 kts 353°
2026-04-23 04:01 29.47199 113.55434 33124 ft 476 kts 354°
2026-04-23 04:02 29.53780 113.56005 33124 ft 475 kts 354°
2026-04-23 04:02 29.60348 113.56576 33127 ft 473 kts 354°
2026-04-23 04:03 29.66930 113.57149 33127 ft 472 kts 354°
2026-04-23 04:03 29.73483 113.57719 33121 ft 471 kts 354°
2026-04-23 04:04 29.80053 113.58293 33130 ft 471 kts 355°
2026-04-23 04:04 29.86618 113.58865 33129 ft 470 kts 355°
2026-04-23 04:05 29.93150 113.59548 33119 ft 480 kts
2026-04-23 04:05 29.99578 113.61996 33132 ft 498 kts 17°
2026-04-23 04:06 30.05906 113.65224 33121 ft 497 kts 15°
2026-04-23 04:06 30.12238 113.68389 33104 ft 495 kts 16°
2026-04-23 04:07 30.18596 113.71566 33107 ft 497 kts 15°
2026-04-23 04:07 30.24927 113.74734 33106 ft 495 kts 16°
2026-04-23 04:08 30.31232 113.77893 33099 ft 495 kts 15°
2026-04-23 04:08 30.37609 113.81092 33108 ft 501 kts 16°
2026-04-23 04:09 30.43954 113.84280 33103 ft 497 kts 16°
2026-04-23 04:09 30.50275 113.87463 33109 ft 494 kts 15°
2026-04-23 04:10 30.56610 113.90654 33112 ft 495 kts 15°
2026-04-23 04:10 30.62695 113.94688 33112 ft 515 kts 32°
2026-04-23 04:11 30.67773 114.00626 33115 ft 527 kts 49°
2026-04-23 04:11 30.71536 114.08051 33118 ft 532 kts 56°
2026-04-23 04:12 30.75413 114.15297 33124 ft 529 kts 53°
2026-04-23 04:12 30.78999 114.22784 33125 ft 536 kts 65°
2026-04-23 04:13 30.81664 114.30855 33115 ft 537 kts 67°
2026-04-23 04:13 30.84292 114.39014 33120 ft 536 kts 67°
2026-04-23 04:14 30.86896 114.47095 33120 ft 537 kts 66°
2026-04-23 04:14 30.89544 114.55235 33118 ft 538 kts 66°
2026-04-23 04:15 30.92184 114.63378 33125 ft 538 kts 67°
2026-04-23 04:16 30.96145 114.75633 33124 ft 539 kts 67°
2026-04-23 04:16 30.98683 114.83504 33122 ft 541 kts 67°
2026-04-23 04:17 31.01311 114.91685 33124 ft 539 kts 67°
2026-04-23 04:17 31.03938 114.99878 33128 ft 541 kts 67°
2026-04-23 04:18 31.06553 115.08061 33127 ft 541 kts 67°
2026-04-23 04:18 31.09170 115.16267 33124 ft 541 kts 67°
2026-04-23 04:19 31.11764 115.24439 33120 ft 540 kts 67°
2026-04-23 04:19 31.14374 115.32591 33120 ft 538 kts 67°
2026-04-23 04:20 31.17029 115.40786 33113 ft 538 kts 67°
2026-04-23 04:20 31.19661 115.48932 33110 ft 533 kts 66°
2026-04-23 04:20 31.20935 115.52883 33101 ft 520 kts 66°
2026-04-23 04:21 31.22217 115.56859 32901 ft 521 kts 66°
2026-04-23 04:21 31.23478 115.60775 32270 ft 522 kts 66°
2026-04-23 04:21 31.24755 115.64754 31684 ft 523 kts 67°
2026-04-23 04:21 31.26023 115.68704 31080 ft 524 kts 67°
2026-04-23 04:22 31.27309 115.72714 30481 ft 525 kts 68°
2026-04-23 04:22 31.28581 115.76688 30111 ft 517 kts 68°
2026-04-23 04:22 31.29838 115.80618 30083 ft 518 kts 68°
2026-04-23 04:22 31.31104 115.84587 29762 ft 523 kts 68°
2026-04-23 04:23 31.32359 115.88524 29279 ft 518 kts 67°
2026-04-23 04:23 31.33630 115.92406 29109 ft 508 kts 67°
2026-04-23 04:23 31.34890 115.96260 29099 ft 508 kts 67°
2026-04-23 04:24 31.37414 116.03998 28501 ft 512 kts 67°
2026-04-23 04:24 31.38676 116.07876 27934 ft 504 kts 68°
2026-04-23 04:24 31.39900 116.11641 27374 ft 496 kts 67°
2026-04-23 04:24 31.41117 116.15385 26829 ft 488 kts 68°
2026-04-23 04:25 31.42302 116.19039 26291 ft 481 kts 68°
2026-04-23 04:25 31.43476 116.22660 25766 ft 477 kts 68°
2026-04-23 04:25 31.44646 116.26276 25250 ft 473 kts 68°
2026-04-23 04:25 31.45790 116.29830 25103 ft 463 kts 68°
2026-04-23 04:26 31.46939 116.33418 25133 ft 471 kts 68°
2026-04-23 04:26 31.48077 116.36982 24789 ft 473 kts 68°
2026-04-23 04:26 31.49235 116.40580 24870 ft 470 kts 68°
2026-04-23 04:26 31.50383 116.44124 24388 ft 471 kts 68°
2026-04-23 04:27 31.51522 116.47636 23575 ft 454 kts 68°
2026-04-23 04:27 31.52619 116.51019 22559 ft 443 kts 68°
2026-04-23 04:27 31.53702 116.54327 21480 ft 435 kts 68°
2026-04-23 04:28 31.55797 116.60776 19392 ft 414 kts 68°
2026-04-23 04:28 31.56803 116.63888 18735 ft 405 kts 68°
2026-04-23 04:28 31.57790 116.66949 17967 ft 402 kts 69°
2026-04-23 04:28 31.58760 116.69961 17184 ft 393 kts 69°
2026-04-23 04:29 31.59703 116.72886 16405 ft 385 kts 68°
2026-04-23 04:29 31.60640 116.75794 15605 ft 377 kts 68°
2026-04-23 04:29 31.61551 116.78624 14817 ft 369 kts 68°
2026-04-23 04:29 31.62442 116.81387 14037 ft 363 kts 68°
2026-04-23 04:30 31.63326 116.84124 13241 ft 356 kts 68°
2026-04-23 04:30 31.64193 116.86814 12439 ft 348 kts 68°
2026-04-23 04:30 31.65038 116.89436 11636 ft 341 kts 68°
2026-04-23 04:30 31.65858 116.91975 10823 ft 328 kts 68°
2026-04-23 04:31 31.66640 116.94385 10031 ft 315 kts 68°
2026-04-23 04:31 31.67406 116.96732 9229 ft 304 kts 68°
2026-04-23 04:31 31.68151 116.99010 8407 ft 294 kts 68°
2026-04-23 04:31 31.68864 117.01186 7594 ft 285 kts 68°
2026-04-23 04:32 31.69561 117.03313 6763 ft 277 kts 68°
2026-04-23 04:32 31.70244 117.05398 5932 ft 269 kts 68°
2026-04-23 04:32 31.70899 117.07393 5104 ft 263 kts 68°
2026-04-23 04:32 31.71538 117.09364 4270 ft 260 kts 71°
2026-04-23 04:33 31.72018 117.11369 3462 ft 255 kts 69°
2026-04-23 04:33 31.73025 117.12874 3380 ft 223 kts 29°
2026-04-23 04:33 31.74478 117.13168 3387 ft 215 kts 351°
2026-04-23 04:33 31.75910 117.12640 3409 ft 217 kts 341°
2026-04-23 04:34 31.77319 117.11961 3409 ft 214 kts 347°
2026-04-23 04:34 31.78660 117.12021 3460 ft 182 kts 18°
2026-04-23 04:34 31.79875 117.12304 3474 ft 181 kts 354°
2026-04-23 04:34 31.80928 117.11633 3461 ft 172 kts 309°
2026-04-23 04:35 31.81344 117.10390 3509 ft 149 kts 288°
2026-04-23 04:35 31.81711 117.09321 3445 ft 135 kts 319°
2026-04-23 04:35 31.82459 117.08701 3480 ft 131 kts 335°
2026-04-23 04:35 31.83252 117.08151 3412 ft 135 kts 335°
2026-04-23 04:36 31.84073 117.07588 3257 ft 135 kts 335°
2026-04-23 04:36 31.84882 117.07040 3091 ft 135 kts 335°
2026-04-23 04:36 31.85698 117.06489 2918 ft 135 kts 335°
2026-04-23 04:36 31.86515 117.05939 2739 ft 135 kts 335°
2026-04-23 04:37 31.87325 117.05395 2555 ft 133 kts 335°
2026-04-23 04:37 31.88130 117.04855 2370 ft 132 kts 334°
2026-04-23 04:37 31.88936 117.04314 2185 ft 132 kts 334°
2026-04-23 04:37 31.89732 117.03779 2006 ft 131 kts 334°
2026-04-23 04:38 31.90516 117.03253 1829 ft 130 kts 333°
2026-04-23 04:38 31.91312 117.02718 1647 ft 130 kts 334°
2026-04-23 04:38 31.92105 117.02185 1467 ft 131 kts 334°
2026-04-23 04:38 31.92890 117.01659 1290 ft 130 kts 333°
2026-04-23 04:39 31.93673 117.01129 1118 ft 130 kts 333°
2026-04-23 04:39 31.94446 117.00559 921 ft 127 kts 331°
2026-04-23 04:39 31.95192 117.00052 709 ft 120 kts 334°
2026-04-23 04:39 31.95903 116.99593 570 ft 124 kts 334°
2026-04-23 04:40 31.96658 116.99112 442 ft 120 kts 336°
2026-04-23 04:40 31.97403 116.98623 279 ft 122 kts 333°
2026-04-23 04:40 31.98070 116.98183 216 ft 92 kts 332°
2026-04-23 04:40 31.98498 116.97897 216 ft 50 kts 330°
2026-04-23 04:41 31.98692 116.97762 216 ft 14 kts 329°
2026-04-23 04:41 31.98716 116.97745 216 ft 3 kts 329°
2026-04-23 04:41 31.98758 116.97716 216 ft 9 kts 330°
2026-04-23 04:41 31.98825 116.97671 216 ft 12 kts 329°
2026-04-23 04:42 31.98896 116.97606 216 ft 16 kts 316°
2026-04-23 04:42 31.99077 116.97303 216 ft 59 kts 305°
2026-04-23 04:42 31.99131 116.96851 216 ft 55 kts 277°
2026-04-23 04:42 31.99205 116.96491 216 ft 35 kts 333°
2026-04-23 04:43 31.99326 116.96598 216 ft 31 kts 46°
2026-04-23 04:43 31.99488 116.96885 216 ft 41 kts 32°
2026-04-23 04:43 31.99757 116.96812 216 ft 60 kts 330°
2026-04-23 04:43 31.99881 116.96581 216 ft 21 kts 201°
2026-04-23 04:44 31.99689 116.96770 216 ft 57 kts 150°
2026-04-23 04:44 31.99213 116.97079 216 ft 85 kts 149°
2026-04-23 04:44 31.98872 116.97520 216 ft 61 kts 88°
2026-04-23 04:44 31.99041 116.97815 216 ft 38 kts 359°
2026-04-23 04:45 31.99245 116.97671 216 ft 53 kts 295°
2026-04-23 04:45 31.99390 116.97090 216 ft 91 kts 261°
2026-04-23 04:45 31.99165 116.96561 216 ft 57 kts 201°
2026-04-23 04:45 31.98996 116.96540 216 ft 0 kts 178°
2026-04-23 04:46 31.99049 116.96538 216 ft 20 kts 178°
2026-04-23 04:47 31.99127 116.96536 216 ft 2 kts 178°
2026-04-23 04:47 31.99044 116.96539 216 ft 7 kts 177°
2026-04-23 04:47 31.99104 116.96536 216 ft 23 kts 178°
2026-04-23 04:47 31.99067 116.96538 216 ft 16 kts 177°
2026-04-23 04:48 31.99121 116.96535 216 ft 22 kts 177°
2026-04-23 04:48 31.99160 116.96545 216 ft 7 kts 122°
2026-04-23 04:48 31.99119 116.96581 216 ft 7 kts 182°
2026-04-23 04:48 31.99121 116.96581 216 ft 0 kts 183°
2026-04-23 04:49 31.99138 116.96594 216 ft 0 kts 281°
2026-04-23 04:49 31.99146 116.96547 216 ft 3 kts 272°
2026-04-23 04:49 31.99141 116.96558 216 ft 5 kts 308°
2026-04-23 04:49 31.99115 116.96577 216 ft 4 kts 341°
2026-04-23 04:50 31.99110 116.96579 216 ft 1 kts 349°
2026-04-23 04:50 31.99078 116.96581 216 ft 7 kts 359°
2026-04-23 04:50 31.99063 116.96581 216 ft 0 kts 358°
2026-04-23 04:51 13.49003 144.80217 263 ft 2 kts 334°